TimeCST,TemperatureF,Dew PointF,Humidity,Sea Level PressureIn,VisibilityMPH,Wind Direction,Wind SpeedMPH,Gust SpeedMPH,PrecipitationIn,Events,Conditions,WindDirDegrees,DateUTC
12:52 AM,19.4,15.8,86,30.28,5.0,Calm,Calm,-,N/A,,Overcast,0,2013-01-03 06:52:00
1:52 AM,24.1,21.0,88,30.33,7.0,South,3.5,-,N/A,,Overcast,190,2013-01-03 07:52:00
2:52 AM,21.0,18.0,88,30.36,7.0,WSW,4.6,-,N/A,,Clear,240,2013-01-03 08:52:00
3:52 AM,16.0,15.1,96,30.37,4.0,SW,4.6,-,N/A,,Scattered Clouds,230,2013-01-03 09:52:00
4:52 AM,15.1,12.0,88,30.37,7.0,SW,4.6,-,N/A,,Clear,230,2013-01-03 10:52:00
5:52 AM,14.0,12.0,92,30.39,8.0,SSW,5.8,-,N/A,,Clear,200,2013-01-03 11:52:00
6:52 AM,14.0,12.0,92,30.41,9.0,WSW,4.6,-,N/A,,Clear,240,2013-01-03 12:52:00
7:52 AM,14.0,10.0,84,30.44,10.0,Calm,Calm,-,N/A,,Scattered Clouds,0,2013-01-03 13:52:00
8:52 AM,19.9,17.1,89,30.45,10.0,Calm,Calm,-,N/A,,Overcast,0,2013-01-03 14:52:00
9:52 AM,23.0,19.4,86,30.43,10.0,South,3.5,-,N/A,,Partly Cloudy,170,2013-01-03 15:52:00
10:52 AM,28.9,19.9,69,30.50,10.0,WNW,5.8,-,N/A,,Overcast,290,2013-01-03 16:52:00
11:52 AM,32.0,21.9,66,30.48,10.0,Variable,4.6,-,N/A,,Overcast,0,2013-01-03 17:52:00
12:52 PM,30.9,21.9,69,30.45,10.0,WNW,5.8,-,N/A,,Overcast,300,2013-01-03 18:52:00
1:17 PM,30.2,23.0,75,30.40,10.0,NW,3.5,-,N/A,,Overcast,310,2013-01-03 19:17:00
1:47 PM,30.2,23.0,75,30.39,10.0,Variable,3.5,-,N/A,,Overcast,0,2013-01-03 19:47:00
1:52 PM,30.9,23.0,72,30.43,10.0,Calm,Calm,-,N/A,,Overcast,0,2013-01-03 19:52:00
2:52 PM,32.0,24.1,73,30.43,10.0,WNW,5.8,-,N/A,,Overcast,290,2013-01-03 20:52:00
3:52 PM,32.0,24.1,73,30.44,10.0,NW,3.5,-,N/A,,Overcast,310,2013-01-03 21:52:00
4:52 PM,30.9,24.1,76,30.45,10.0,Calm,Calm,-,N/A,,Overcast,0,2013-01-03 22:52:00
5:52 PM,30.0,24.1,79,30.46,10.0,Calm,Calm,-,N/A,,Overcast,0,2013-01-03 23:52:00
6:52 PM,25.0,21.9,88,30.47,10.0,SW,3.5,-,N/A,,Clear,230,2013-01-04 00:52:00
7:52 PM,24.1,19.9,84,30.47,9.0,WSW,5.8,-,N/A,,Clear,240,2013-01-04 01:52:00
8:52 PM,18.0,14.0,84,30.47,5.0,Calm,Calm,-,N/A,,Clear,0,2013-01-04 02:52:00
9:52 PM,15.1,10.9,84,30.46,6.0,Calm,Calm,-,N/A,,Clear,0,2013-01-04 03:52:00
10:31 PM,14.0,10.4,86,30.41,5.0,Calm,Calm,-,N/A,,Scattered Clouds,0,2013-01-04 04:31:00
10:39 PM,15.8,10.4,79,30.40,4.0,Calm,Calm,-,N/A,,Haze,0,2013-01-04 04:39:00
10:49 PM,14.0,10.4,86,30.40,3.0,Calm,Calm,-,N/A,,Scattered Clouds,0,2013-01-04 04:49:00
10:52 PM,14.0,10.9,88,30.45,3.0,Calm,Calm,-,N/A,,Scattered Clouds,0,2013-01-04 04:52:00
11:27 PM,8.6,8.6,100,30.40,1.2,Calm,Calm,-,N/A,,Partly Cloudy,0,2013-01-04 05:27:00
11:29 PM,8.6,6.8,92,30.40,0.8,Calm,Calm,-,N/A,,Mist,0,2013-01-04 05:29:00
11:45 PM,10.4,6.8,85,30.39,0.2,Calm,Calm,-,N/A,Fog,Light Freezing Fog,0,2013-01-04 05:45:00
11:52 PM,10.9,9.0,92,30.43,0.2,Calm,Calm,-,N/A,Fog,Light Freezing Fog,0,2013-01-04 05:52:00